FW2552 Weather Reports


time (UTC)temp
F
wind
direction
speed
knots
gust
knots
rain 1hr
in
rain 24hr
in
rain mn
in
humidity
%
barometer
mb
20260510203204 72 31 4.3 10.4 0.00 0.00 0.00 38 1021.4
20260510202704 73 115 4.3 10.4 0.00 0.00 0.00 34 1021.5
20260510202203 72 66 4.3 10.4 0.00 0.00 0.00 34 1021.4
20260510201704 73 347 6.1 8.7 0.00 0.00 0.00 31 1021.5
20260510201203 73 278 2.6 7.8 0.00 0.00 0.00 35 1021.5
20260510200703 72 14 3.5 13.0 0.00 0.00 0.00 36 1021.5
20260510200204 72 31 6.1 13.0 0.00 0.00 0.00 34 1021.7
20260510195703 72 92 2.6 10.4 0.00 0.00 0.00 37 1021.3
20260510195204 72 27 1.7 10.4 0.00 0.00 0.00 36 1021.5
20260510194704 72 39 3.5 7.8 0.00 0.00 0.00 35 1021.3
20260510193704 72 41 5.2 11.3 0.00 0.00 0.00 34 1021.6
20260510193203 71 40 6.1 12.2 0.00 0.00 0.00 34 1021.5
20260510192704 72 347 2.6 12.2 0.00 0.00 0.00 35 1021.6
20260510192204 72 113 5.2 8.7 0.00 0.00 0.00 35 1021.5
20260510191204 72 5 3.5 11.3 0.00 0.00 0.00 34 1021.6
20260510190703 72 76 5.2 7.8 0.00 0.00 0.00 34 1021.6
20260510190204 71 18 5.2 8.7 0.00 0.00 0.00 37 1021.3
20260510185703 71 32 4.3 10.4 0.00 0.00 0.00 34 1021.5
20260510185204 72 29 5.2 13.0 0.00 0.00 0.00 33 1021.8
20260510184704 72 355 2.6 12.2 0.00 0.00 0.00 39 1021.5
20260510183706 71 355 4.3 8.7 0.00 0.00 0.00 35 1021.4
20260510183203 71 163 4.3 7.8 0.00 0.00 0.00 35 1021.6
20260510182203 72 26 4.3 8.7 0.00 0.00 0.00 36 1021.2
20260510181203 71 290 0.9 7.8 0.00 0.00 0.00 35 1021.0
20260510180705 70 53 2.6 8.7 0.00 0.00 0.00 36 1021.0
20260510180204 71 25 4.3 13.9 0.00 0.00 0.00 35 1020.8
20260510175703 71 31 5.2 7.8 0.00 0.00 0.00 34 1021.1
20260510175204 71 130 1.7 7.0 0.00 0.00 0.00 36 1020.8
20260510174703 71 238 2.6 12.2 0.00 0.00 0.00 35 1020.8
20260510174204 71 321 2.6 8.7 0.00 0.00 0.00 37 1020.8
20260510173204 70 351 4.3 12.2 0.00 0.00 0.00 35 1021.0
20260510172703 71 6 4.3 8.7 0.00 0.00 0.00 34 1021.0
20260510172204 70 298 4.3 7.8 0.00 0.00 0.00 37 1020.8
20260510171703 70 12 2.6 11.3 0.00 0.00 0.00 36 1020.8
20260510171204 70 356 4.3 11.3 0.00 0.00 0.00 36 1020.8
20260510170703 70 30 6.1 12.2 0.00 0.00 0.00 36 1020.8
20260510170204 69 321 1.7 13.0 0.00 0.00 0.00 41 1020.9
20260510165704 70 8 7.8 12.2 0.00 0.00 0.00 34 1020.9
20260510165204 69 42 2.6 12.2 0.00 0.00 0.00 37 1020.9
20260510164703 68 124 5.2 17.4 0.00 0.00 0.00 37 1020.7
20260510164203 68 8 5.2 15.6 0.00 0.00 0.00 37 1020.7
20260510163704 68 49 6.1 14.8 0.00 0.00 0.00 36 1020.7
20260510163204 69 258 4.3 11.3 0.00 0.00 0.00 41 1020.8
20260510161704 68 0 4.3 14.8 0.00 0.00 0.00 40 1020.4
20260510161203 67 333 1.7 12.2 0.00 0.00 0.00 39 1020.2
20260510160203 67 3 1.7 13.0 0.00 0.00 0.00 42 1020.2
20260510155704 67 20 7.8 11.3 0.00 0.00 0.00 40 1020.2
20260510155204 66 43 2.6 11.3 0.00 0.00 0.00 42 1020.1
20260510154203 66 35 4.3 12.2 0.00 0.00 0.00 41 1019.9
20260510153204 66 283 4.3 12.2 0.00 0.00 0.00 43 1020.3
20260510152703 65 13 2.6 14.8 0.00 0.00 0.00 42 1020.3
20260510152203 65 21 2.6 11.3 0.00 0.00 0.00 44 1020.4
20260510151703 65 358 4.3 12.2 0.00 0.00 0.00 44 1020.4
20260510150203 65 146 5.2 14.8 0.00 0.00 0.00 43 1020.2
20260510145703 65 337 5.2 14.8 0.00 0.00 0.00 43 1020.2
20260510145204 64 357 3.5 7.0 0.00 0.00 0.00 47 1020.2
20260510144703 64 272 2.6 13.0 0.00 0.00 0.00 46 1020.1
20260510143703 65 33 2.6 13.0 0.00 0.00 0.00 49 1020.2
20260510143203 65 51 5.2 15.6 0.00 0.00 0.00 50 1020.2
20260510142704 65 32 4.3 11.3 0.00 0.00 0.00 49 1020.1
20260510142204 64 105 3.5 7.0 0.00 0.00 0.00 51 1020.0
20260510141703 64 118 4.3 11.3 0.00 0.00 0.00 51 1019.7
20260510141203 64 14 7.0 12.2 0.00 0.00 0.00 51 1019.4
20260510140704 64 318 2.6 13.0 0.00 0.00 0.00 51 1019.3
20260510140204 64 300 3.5 7.8 0.00 0.00 0.00 51 1019.5
20260510135704 64 341 3.5 8.7 0.00 0.00 0.00 50 1019.3
20260510135204 64 356 4.3 13.0 0.00 0.00 0.00 49 1019.2
20260510134704 64 57 4.3 13.0 0.00 0.00 0.00 49 1019.1
20260510134204 64 353 2.6 17.4 0.00 0.00 0.00 54 1019.1
20260510133704 64 289 2.6 7.0 0.00 0.00 0.00 56 1019.1
20260510133204 63 91 1.7 13.9 0.00 0.00 0.00 58 1018.9
20260510132704 63 3 2.6 13.9 0.00 0.00 0.00 59 1019.1
20260510132203 62 50 3.5 8.7 0.00 0.00 0.00 60 1018.7
20260510130704 61 18 2.6 7.8 0.00 0.00 0.00 64 1018.4
20260510130203 61 45 5.2 7.8 0.00 0.00 0.00 65 1018.4
20260510125704 61 219 3.5 12.2 0.00 0.00 0.00 66 1018.2
20260510124703 61 141 3.5 7.0 0.00 0.00 0.00 69 1018.0
20260510124204 60 140 3.5 11.3 0.00 0.00 0.00 72 1018.0
20260510123703 60 22 5.2 11.3 0.00 0.00 0.00 74 1018.0
20260510123204 60 262 4.3 8.7 0.00 0.00 0.00 75 1017.9
20260510122703 59 24 1.7 7.8 0.00 0.00 0.00 77 1018.0
20260510122204 59 164 2.6 10.4 0.00 0.00 0.00 79 1017.8
20260510121703 59 334 2.6 6.1 0.00 0.00 0.00 81 1017.8
20260510121203 59 44 0.9 7.0 0.00 0.00 0.00 82 1017.5
20260510120703 59 344 1.7 7.0 0.00 0.00 0.00 82 1017.6
20260510115703 59 26 3.5 10.4 0.00 0.00 0.00 82 1017.1
20260510115203 59 12 1.7 7.8 0.00 0.00 0.00 82 1017.0
20260510114704 59 171 1.7 7.0 0.00 0.00 0.00 83 1016.9
20260510114203 59 9 4.3 8.7 0.00 0.00 0.00 83 1016.8
20260510113703 59 131 1.7 8.7 0.00 0.00 0.00 83 1016.8
20260510113203 59 21 2.6 6.1 0.00 0.00 0.00 83 1016.6
20260510112704 59 35 3.5 7.0 0.00 0.00 0.00 83 1016.6
20260510112203 59 279 2.6 7.8 0.00 0.00 0.00 82 1016.7
20260510111703 59 125 0.9 5.2 0.00 0.00 0.00 83 1016.5
20260510111203 59 36 0.9 8.7 0.00 0.00 0.00 83 1016.7
20260510110704 59 29 2.6 8.7 0.00 0.00 0.00 84 1016.6
20260510105704 59 26 1.7 6.1 0.00 0.00 0.00 84 1016.8
20260510105203 59 359 0.9 6.1 0.00 0.00 0.00 84 1016.7
20260510104704 59 29 4.3 6.1 0.00 0.00 0.00 84 1016.5
20260510104203 59 44 1.7 4.3 0.00 0.00 0.00 84 1016.4
20260510103703 59 33 0.0 4.3 0.00 0.00 0.00 83 1016.1
20260510103204 59 33 0.9 4.3 0.00 0.00 0.00 83 1016.1
20260510102203 58 59 0.0 1.7 0.00 0.00 0.00 83 1015.9
20260510101704 59 197 0.0 2.6 0.00 0.00 0.00 83 1016.0
20260510101204 59 179 0.0 2.6 0.00 0.00 0.00 83 1015.9
20260510100704 59 182 0.9 1.7 0.00 0.00 0.00 83 1015.8
20260510100203 59 196 0.0 2.6 0.00 0.00 0.00 83 1015.9
20260510095703 59 55 1.7 2.6 0.00 0.00 0.00 82 1015.7
20260510095203 59 53 0.0 2.6 0.00 0.00 0.00 82 1015.5
20260510094703 59 15 0.9 5.2 0.00 0.00 0.00 82 1015.7
20260510094203 59 21 1.7 2.6 0.00 0.00 0.00 82 1015.4
20260510093704 59 25 0.9 2.6 0.00 0.00 0.00 81 1015.5
20260510093203 59 33 1.7 2.6 0.00 0.00 0.00 81 1015.4
20260510092703 60 34 0.9 4.3 0.00 0.00 0.00 81 1015.3
20260510092203 60 11 1.7 4.3 0.00 0.00 0.00 81 1015.3
20260510091704 60 53 0.9 2.6 0.00 0.00 0.00 80 1015.2
20260510091204 60 143 0.0 2.6 0.00 0.00 0.00 80 1015.2
20260510090704 60 186 0.9 5.2 0.00 0.00 0.00 79 1015.3
20260510090204 60 39 2.6 5.2 0.00 0.00 0.00 79 1015.3
20260510085703 60 12 1.7 6.1 0.00 0.00 0.00 79 1015.1
20260510085204 60 15 1.7 6.1 0.00 0.00 0.00 79 1015.0
20260510084703 60 55 0.9 2.6 0.00 0.00 0.00 78 1015.1
20260510084203 60 22 0.9 1.7 0.00 0.00 0.00 77 1015.0
20260510083204 61 34 0.0 1.7 0.00 0.00 0.00 75 1014.9
20260510082703 61 79 0.0 2.6 0.00 0.00 0.00 75 1015.1
20260510082203 61 52 1.7 2.6 0.00 0.00 0.00 74 1015.0
20260510081204 62 36 0.9 2.6 0.00 0.00 0.00 72 1014.9
20260510080704 62 0 0.9 2.6 0.00 0.00 0.00 72 1014.8
20260510080203 62 48 0.9 2.6 0.00 0.00 0.00 72 1014.8
20260510075704 62 22 1.7 4.3 0.00 0.00 0.00 72 1014.7
20260510075203 62 42 0.0 2.6 0.00 0.00 0.00 72 1014.7
20260510074703 61 49 0.0 4.3 0.00 0.00 0.00 72 1014.6
20260510073703 61 45 0.9 1.7 0.00 0.00 0.00 71 1014.5
20260510073203 62 160 0.0 2.6 0.00 0.00 0.00 72 1014.6
20260510072703 62 121 1.7 2.6 0.00 0.00 0.00 72 1014.8
20260510072204 62 53 0.9 4.3 0.00 0.00 0.00 71 1014.9
20260510071703 62 45 1.7 4.3 0.00 0.00 0.00 72 1014.9
20260510071204 62 91 0.9 4.3 0.00 0.00 0.00 72 1014.8
20260510065704 63 39 1.7 1.7 0.00 0.00 0.00 67 1014.7
20260510065203 63 41 0.0 1.7 0.00 0.00 0.00 65 1014.7
20260510064703 64 72 1.7 1.7 0.00 0.00 0.00 65 1014.8
20260510063703 64 37 0.9 1.7 0.00 0.00 0.00 62 1015.0
20260510063204 64 47 0.0 1.7 0.00 0.00 0.00 63 1014.7
20260510062703 64 44 0.0 1.7 0.00 0.00 0.00 63 1014.7
20260510062204 64 227 0.0 1.7 0.00 0.00 0.00 62 1014.7
20260510061704 64 40 0.0 1.7 0.00 0.00 0.00 61 1014.8
20260510061204 65 122 0.0 1.7 0.00 0.00 0.00 61 1014.7
20260510055704 65 153 2.6 6.1 0.00 0.00 0.00 60 1014.7
20260510054704 65 158 5.2 7.0 0.00 0.00 0.00 60 1014.7
20260510053703 64 241 0.0 1.7 0.00 0.00 0.00 61 1014.7
20260510053204 64 239 0.0 1.7 0.00 0.00 0.00 60 1014.6
20260510052704 64 222 0.0 1.7 0.00 0.00 0.00 60 1014.8
20260510052204 65 34 0.0 1.7 0.00 0.00 0.00 59 1014.6
20260510051203 65 343 0.0 1.7 0.00 0.00 0.00 58 1014.7
20260510050703 65 276 0.0 1.7 0.00 0.00 0.00 57 1014.6
20260510050203 65 24 0.9 2.6 0.00 0.00 0.00 57 1014.5
20260510045703 66 296 0.9 2.6 0.00 0.19 0.00 57 1014.4
20260510044703 67 280 1.7 2.6 0.00 0.19 0.00 55 1014.5
20260510043204 68 215 0.0 4.3 0.00 0.19 0.00 51 1014.6
20260510042203 68 84 0.9 7.0 0.00 0.19 0.00 49 1014.5
20260510041704 68 50 2.6 10.4 0.00 0.19 0.00 49 1014.5
20260510041204 68 4 1.7 10.4 0.00 0.19 0.00 49 1014.3
20260510040703 69 21 3.5 7.8 0.00 0.19 0.00 49 1014.2
20260510040204 69 323 0.0 4.3 0.00 0.19 0.00 48 1013.8
20260510035704 69 222 0.9 5.2 0.00 0.19 0.00 48 1013.6
20260510035204 69 351 0.9 7.0 0.00 0.19 0.00 48 1013.8
20260510034704 70 48 3.5 7.0 0.00 0.19 0.00 47 1013.7
20260510034204 70 175 2.6 7.0 0.00 0.19 0.00 47 1013.7
20260510033204 70 152 2.6 11.3 0.00 0.19 0.00 45 1013.6
20260510032703 70 71 2.6 5.2 0.00 0.19 0.00 45 1013.6
20260510032203 69 100 0.9 4.3 0.00 0.19 0.00 45 1013.7
20260510031704 69 47 1.7 2.6 0.00 0.19 0.00 45 1013.6
20260510031203 69 167 0.9 2.6 0.00 0.19 0.00 45 1013.6
20260510030703 69 346 0.0 2.6 0.00 0.19 0.00 46 1013.6
20260510030203 70 81 0.9 2.6 0.00 0.19 0.00 45 1013.7
20260510025704 70 80 0.0 6.1 0.00 0.19 0.00 46 1013.5
20260510025203 70 122 1.7 4.3 0.00 0.20 0.00 45 1013.5
20260510024203 70 219 0.9 2.6 0.00 0.22 0.00 44 1013.3
20260510023204 70 316 0.9 2.6 0.00 0.26 0.00 44 1013.2
20260510021704 72 103 0.9 6.1 0.00 0.31 0.00 43 1012.8
20260510021203 71 123 2.6 6.1 0.00 0.33 0.00 44 1012.8
20260510020204 71 248 0.0 2.6 0.00 0.36 0.00 44 1012.7
20260510015203 71 20 0.9 1.7 0.00 0.36 0.00 44 1012.7
20260510014704 72 180 0.0 1.7 0.00 0.36 0.00 44 1012.7
20260510014204 72 111 0.0 0.0 0.00 0.36 0.00 43 1012.4
20260510013703 73 354 0.0 4.3 0.00 0.36 0.00 41 1012.5
20260510012703 74 306 0.0 0.0 0.00 0.36 0.00 40 1012.7
20260510012204 75 216 0.0 2.6 0.00 0.36 0.00 38 1012.5
20260510011703 75 274 0.9 2.6 0.00 0.36 0.00 37 1012.6
20260510011204 76 154 0.9 4.3 0.00 0.36 0.00 36 1012.5
20260510010703 76 238 1.7 2.6 0.00 0.36 0.00 36 1012.6
20260510010203 77 164 0.9 4.3 0.00 0.36 0.00 35 1012.4
20260510004704 77 40 0.9 4.3 0.00 0.36 0.00 36 1012.4
20260510003704 77 247 0.9 2.6 0.00 0.36 0.00 36 1012.4
20260510003203 77 116 0.0 4.3 0.00 0.36 0.00 35 1012.5
20260510002703 78 231 1.7 4.3 0.00 0.36 0.00 35 1012.3
20260510002203 78 347 0.0 5.2 0.00 0.36 0.00 34 1012.5
20260510001704 78 188 0.0 5.2 0.00 0.36 0.00 33 1012.5
20260510001203 79 158 2.6 4.3 0.00 0.36 0.00 33 1012.5
20260510000704 79 273 1.7 4.3 0.00 0.36 0.00 32 1012.6
20260509235704 80 221 0.9 4.3 0.00 0.36 0.00 31 1012.7
20260509235203 81 170 1.7 5.2 0.00 0.36 0.00 30 1012.7
20260509234204 82 268 2.6 4.3 0.00 0.36 0.00 29 1012.6
20260509233703 82 238 1.7 4.3 0.00 0.36 0.00 28 1012.7
20260509232703 82 161 3.5 7.0 0.00 0.36 0.00 27 1012.7
20260509232204 83 287 4.3 7.8 0.00 0.37 0.00 26 1012.8
20260509231704 83 48 1.7 4.3 0.00 0.37 0.00 26 1012.7
20260509231204 83 299 2.6 7.0 0.00 0.37 0.00 27 1012.7
20260509230703 83 98 1.7 7.8 0.00 0.37 0.00 28 1012.7
20260509230204 83 32 2.6 11.3 0.00 0.37 0.00 27 1012.9
20260509225704 83 251 5.2 11.3 0.00 0.37 0.00 26 1012.8
20260509225203 84 296 3.5 8.7 0.00 0.37 0.00 25 1012.8
20260509224703 84 202 2.6 6.1 0.00 0.37 0.00 26 1013.0
20260509224203 83 187 0.9 8.7 0.00 0.37 0.00 25 1012.8
20260509223703 83 283 5.2 8.7 0.00 0.38 0.00 26 1012.9
20260509223204 84 161 2.6 7.8 0.00 0.39 0.00 27 1012.9
20260509222704 84 239 2.6 7.0 0.00 0.39 0.00 26 1012.8
20260509222204 83 48 4.3 7.0 0.00 0.39 0.00 26 1012.7
20260509221704 84 245 5.2 11.3 0.00 0.39 0.00 27 1013.0
20260509221204 84 236 0.9 7.0 0.00 0.39 0.00 27 1012.9
20260509220703 83 243 2.6 8.7 0.00 0.39 0.00 26 1012.7
20260509220204 83 269 4.3 11.3 0.00 0.39 0.00 24 1012.8
20260509215704 84 247 4.3 11.3 0.00 0.39 0.00 24 1012.9
20260509215203 84 244 4.3 11.3 0.00 0.39 0.00 26 1012.7
20260509214703 84 33 2.6 7.8 0.00 0.39 0.00 25 1012.8
20260509214204 84 324 3.5 7.8 0.00 0.39 0.00 26 1012.8
20260509213704 84 280 0.9 10.4 0.00 0.39 0.00 25 1012.8
20260509213204 83 347 2.6 7.0 0.00 0.39 0.00 26 1012.7
20260509212703 83 268 4.3 10.4 0.00 0.39 0.00 26 1012.8
20260509212204 83 353 3.5 7.8 0.00 0.39 0.00 28 1012.8
20260509211703 83 203 2.6 7.8 0.00 0.39 0.00 26 1012.7
20260509211204 83 221 4.3 8.7 0.00 0.39 0.00 26 1013.0
20260509210703 83 275 3.5 15.6 0.00 0.39 0.00 27 1012.9
20260509210203 83 306 2.6 15.6 0.00 0.39 0.00 27 1013.1
20260509205703 83 232 3.5 13.9 0.00 0.39 0.00 30 1013.2
20260509205204 83 255 5.2 13.0 0.00 0.39 0.00 27 1013.0
20260509204203 83 304 5.2 11.3 0.00 0.39 0.00 28 1013.4
20260509203704 83 270 2.6 14.8 0.00 0.39 0.00 27 1013.2